This demonstration page uses our WeatherBlox Daily Observations layout. Learn more.

Left ArrowRight Arrow

44.8408, -93.29828

Hourly Observations for June 10, 2017

Temp ( °F °C ) Dew Point ( °F °C ) Humidity (%) Winds ( mph kmh ) Pressure ( in mb ) Visibility ( mi km ) Precip ( " mm )
12:53 am 00:53 Mostly Cloudy 78 25.6 56 13.3 47 47 S 12 19 29.57 1001 10 16 0.00 0.00
1:53 am 01:53 Mostly Cloudy 79 26.1 53 11.7 41 41 S 13 20 29.54 1000 10 16 0.00 0.00
2:53 am 02:53 Mostly Cloudy 79 26.1 54 12.2 42 42 S 13 20 29.53 1000 10 16 0.00 0.00
3:53 am 03:53 Mostly Cloudy 78 25.6 55 12.8 45 45 SSW 15 24 29.53 1000 10 16 0.00 0.00
4:53 am 04:53 Partly Cloudy 77 25 57 13.9 50 50 S 13 20 29.51 999 10 16 0.00 0.00
5:53 am 05:53 Partly Cloudy 77 25 58 14.4 52 52 SSW 14 22 29.52 1000 10 16 0.00 0.00
6:53 am 06:53 Partly Cloudy 77 25 59 15 54 54 S 15 24 29.51 999 10 16 0.00 0.00
7:53 am 07:53 Mostly Sunny 79 26.1 60 15.6 52 52 S 20 31 29.49 999 10 16 0.00 0.00
8:53 am 08:53 Sunny 81 27.2 61 16.1 51 51 SSW 16 26 29.47 998 10 16 0.00 0.00
9:53 am 09:53 Sunny 84 28.9 62 16.7 48 48 SSW 22 35 29.47 998 10 16 0.00 0.00
10:53 am 10:53 Sunny 87 30.6 63 17.2 45 45 S 23 37 29.43 997 10 16 0.00 0.00
11:53 am 11:53 Mostly Sunny 90 32.2 62 16.7 39 39 SSW 22 35 29.42 996 10 16 0.00 0.00
12:53 pm 12:53 Partly Cloudy 92 33.3 62 16.7 37 37 SSW 23 37 29.44 997 10 16 0.00 0.00
1:53 pm 13:53 Mostly Cloudy 95 35 63 17.2 35 35 SW 24 39 29.42 996 10 16 0.00 0.00
2:53 pm 14:53 Mostly Cloudy 95 35 64 17.8 36 36 SW 20 31 29.43 997 10 16 0.00 0.00
3:53 pm 15:53 Mostly Cloudy 93 33.9 64 17.8 38 38 WSW 16 26 29.44 997 10 16 0.00 0.00
4:53 pm 16:53 Partly Cloudy 94 34.4 64 17.8 37 37 WSW 24 39 29.44 997 10 16 0.00 0.00
5:53 pm 17:53 Mostly Cloudy 93 33.9 65 18.3 40 40 SW 17 28 29.45 997 10 16 0.00 0.00
6:53 pm 18:53 Mostly Cloudy 92 33.3 65 18.3 41 41 W 14 22 29.46 998 10 16 0.00 0.00
7:53 pm 19:53 Mostly Cloudy 89 31.7 63 17.2 42 42 WNW 13 20 29.50 999 10 16 0.00 0.00
8:53 pm 20:53 Mostly Cloudy 85 29.4 59 15 42 42 WNW 8 13 29.54 1000 10 16 0.00 0.00
9:53 pm 21:53 Cloudy 84 28.9 59 15 43 43 NW 5 7 29.58 1002 10 16 0.00 0.00
10:53 pm 22:53 Partly Cloudy 83 28.3 59 15 44 44 Calm 29.61 1003 10 16 0.00 0.00
11:53 pm 23:53 Partly Cloudy 80 26.7 60 15.6 51 51 Calm 29.62 1003 10 16 0.00 0.00

Powered by AerisWeather